Погода в Динамо

Россия / Волгоградская область     50°14′42″N   41°39′14″E
темп.,
°C
ветер,
м/с
пор.,
м/с
влажн.,
%
обл.,
%
осадки,
мм/ч
давл.,
гПа
погр.,
м
19 апреля, пн
пн1900:00+11св2558100 0.0 1017132
03:00+10всв246199 0.0 1017111
06:00+9юв117099 0.0 101619
09:00+13в3357100 0.0 10161131
12:00+13вюв4457100 0.1 10151209
15:00+14в455857 0.4 10141224
18:00+12вюв3566100 0.1 1014554
21:00+10в477754 0.1 1015305
20 апреля, вт
вт2000:00+9всв4786100 0.0 1015418
03:00+9всв478972 0.0 1014347
06:00+8всв489586 0.0 1013364
09:00+10в5889100 0.0 1013474
12:00+11в61193100 0.9 1011743
15:00+10в81795100 6.1 1007878
18:00+12юв112195100 2.3 10021337
21:00+13ю9168714 4.5 1003794
21 апреля, ср
ср2100:00+10ю9178267 0.1 1004797
03:00+9ю91387100 0.2 1005990
06:00+10ююз81389100 0.2 1007921
09:00+10юз5878100 0.3 1012766
12:00+14юз795573 0.4 10131813
15:00+13ююз696173 0.5 10141084
18:00+13юз595721 0.0 1015653
21:00+10юз3768100 0.0 1017141
22 апреля, чт
чт2200:00+8зюз337866 0.0 101838
03:00+7юз22805 0.0 101910
06:00+7юз23835 0.0 102052
09:00+13юз33625 0.0 1021632
12:00+15юз565154 0.7 10211734
15:00+16зюз464775 2.1 10212055
18:00+14зюз2261100 0.0 102124
21:00+13зюз0161100 0.0 102210
23 апреля, пт
пт2300:00+12юз1162100 0.0 102210
03:00+12ю0059100 0.0 102310
06:00+12ююв1160100 0.0 102312
09:00+14ююв225295 0.0 1023378
12:00+17ююв2341100 0.1 10231991
15:00+15ю545469 0.4 1022868
18:00+16ююв125511 0.1 1021345
21:00+10ю34775 1.2 102159